Regional Weather Roundup
Issued by NWS Cleveland, OH

Home | Current Version | Previous Version | Text Only | Print | Product List | Glossary Off
Versions: 1 2 3 4 5 6 7 8 9 10 11 12 13 14 15 16 17 18 19 20 21 22 23 24 25 26 27 28 29 30 31 32 33 34 35 36 37 38 39 40 41 42 43 44 45 46 47 48 49 50

000
ASUS41 KCLE 272200
RWRCLE
OHIO REGIONAL WEATHER ROUNDUP
NATIONAL WEATHER SERVICE WILMINGTON, OH
600 PM EDT WED MAY 27 2015

NOTE: "FAIR" INDICATES FEW OR NO CLOUDS BELOW 12,000 FEET WITH NO
SIGNIFICANT WEATHER AND/OR OBSTRUCTIONS TO VISIBILITY.

OHZ001>008-015>018-024>027-034-035-043-044-272300-
   NORTHWEST OHIO

CITY           SKY/WX    TMP DP  RH WIND       PRES   REMARKS
DEFIANCE       CLOUDY    73  66  78 SW3       30.01F
FINDLAY        PTSUNNY   72  61  68 NW15G28   30.01S
TOLEDO EXPRESS CLOUDY    65  63  93 S8        30.01R
TOLEDO EXEC    CLOUDY    67  62  84 SW9       30.02R
LIMA           CLOUDY    71  62  73 NW12G23   30.03R
$$

OHZ009>014-019>023-028>033-038-089-272300-
   NORTHEAST OHIO

CITY           SKY/WX    TMP DP  RH WIND       PRES   REMARKS
CLE-HOPKINS    PTSUNNY   77  58  51 W31G41    30.07R THUNDER
CLE-LAKEFRONT  PTSUNNY   67  57  70 W17G23    30.05R
CUY CO. ARPT   PTSUNNY   82  61  47 NW17      30.02S
LORAIN-ELYRIA  LGT RAIN  64  59  83 NW9G23    30.06R
ASHTABULA      MOSUNNY   80  60  50 SW15G21   30.03S
AKRON-CANTON   PTSUNNY   80  59  48 SW18G25   30.06F
WOOSTER        NOT AVBL
MANSFIELD      MOSUNNY   81  60  48 S20G26    30.04F
YOUNGSTOWN     PTSUNNY   79  60  52 SW16G23   30.06F
$$

OHZ042-051>053-060>062-070>072-077>081-272300-
  SOUTHWEST OHIO

CITY           SKY/WX    TMP DP  RH WIND       PRES   REMARKS
CINC-COVINGTON CLOUDY    78  61  55 S13G22    30.09R
CINC-LUNKEN    PTSUNNY   78  64  61 SW15G21   30.08R
HAMILTON       PTSUNNY   82  62  50 SW8G20    30.07R
DAYTON         NOT AVBL
WRIGHT-PAT AFB NOT AVBL
DAYTON GENERAL MOSUNNY   81  63  54 SW13      30.06R
WILMINGTON     PTSUNNY   79  61  53 S16G24    30.06S
$$

OHZ036-037-039>041-045>050-054>059-063>069-073>076-082>088-272300-
  CENTRAL AND SOUTHEAST OHIO

CITY           SKY/WX    TMP DP  RH WIND       PRES   REMARKS
COLUMBUS       MOSUNNY   82  62  50 S15G23    30.05F
OSU AIRPORT    MOSUNNY   82  59  45 SW20G33   30.05S
BOLTON FIELD   MOSUNNY   82  64  54 S21G26    30.06F
RICKENBACK AFB NOT AVBL
NEWARK         MOSUNNY   81  63  54 SW12G22   30.06F
MARION         PTSUNNY   81  58  45 SW18G24   30.03F
LANCASTER      MOSUNNY   83  61  47 S16       30.08S
ZANESVILLE     PTSUNNY   81  63  54 S13G21    30.09S
NEW PHILLY     MOSUNNY   82  61  48 SW9G18    30.08F
$$


USA.gov is the U.S. government's official web portal to all federal, state and local government web resources and services.